FM-5

Last updated on Sun Jun 21 2026 00:03:04 GMT+0000 (Coordinated Universal Time)

1 35493U 09034A 26171.38377977 -.00000205 00000+0 00000+0 0 9994 2 35493 0.0202 292.9387 0000851 30.9605 356.6938 1.00272217 46672
UTC large
Height (km)
Speed (km/s)
/
Latitude / Longitude
Inclination (degrees)
Orbital Period (minutes)
Azimuth
Elevation
Range (km)
Doppler Factor

Next 0 passes for location: London (51.5072 / 0.1276)

No passes found over London.
FM-5